Regional Weather Roundup
Issued by NWS

Home | Current Version | Previous Version | Graphics & Text | Print | Product List | Glossary On
Versions: 1 2 3 4 5 6 7 8 9 10 11 12 13 14 15 16 17 18 19 20 21 22 23 24 25 26 27 28 29 30 31 32 33 34 35 36 37 38 39 40 41 42 43 44 45 46 47 48 49 50
000
ASUS43 KFSD 191102
RWRSD

WEATHER ROUNDUP FOR SOUTH DAKOTA
NATIONAL WEATHER SERVICE SIOUX FALLS SD
600 AM CDT THU APR 19 2018

NOTE: "FAIR" INDICATES FEW OR NO CLOUDS BELOW 12,000 FEET WITH NO
SIGNIFICANT WEATHER AND/OR OBSTRUCTIONS TO VISIBILITY.


SDZ001>005-009-010-012>017-191200-
NORTHWEST AND NORTH CENTRAL SOUTH DAKOTA

CITY           SKY/WX    TMP DP  RH WIND       PRES   REMARKS
BUFFALO          N/A     32  28  85 E8        30.24R WCI  25
FAITH            N/A     31  30  96 SE12      30.34R WCI  22
MOBRIDGE       CLEAR     28  23  81 NW3       30.36R
$$

SDZ012>016-024>037-041>051-057-063-072>074-191200-
SOUTHWEST AND SOUTH CENTRAL SOUTH DAKOTA

CITY           SKY/WX    TMP DP  RH WIND       PRES   REMARKS
RAPID CTY ARPT PTCLDY    29  28  96 CALM      30.33R
PIERRE         CLEAR     27  26  96 CALM      30.37R
CUSTER         PTCLDY    24  19  81 CALM      30.29R
ELLSWORTH AFB  PTCLDY    35  32  89 CALM      30.31R
PHILIP         CLEAR     26  25  96 CALM      30.37R
PINE RIDGE     CLEAR     27  27 100 CALM      30.33S
SPEARFISH      FAIR      32  27  80 SE6       30.29R WCI  26
WINNER         FAIR      26  22  84 SW5       30.38R WCI  20
$$

SDZ004>011-016>023-039-040-191200-
NORTHEAST SOUTH DAKOTA

CITY           SKY/WX    TMP DP  RH WIND       PRES   REMARKS
ABERDEEN       CLEAR     25  22  88 CALM      30.38R
WATERTOWN      CLEAR     28  28 100 CALM      30.36R
BROOKINGS      CLOUDY    27  25  92 NW5       30.38R WCI  22
SISSETON         N/A     31  28  89 CALM      30.36R
$$

SDZ017-020-022-023-036>040-048>070-191200-
SOUTHEAST SOUTH DAKOTA

CITY           SKY/WX    TMP DP  RH WIND       PRES   REMARKS
SIOUX FALLS    PTCLDY    25  20  81 CALM      30.37R
HURON          CLEAR     25  23  92 CALM      30.39R FOG
CHAMBERLAIN    CLEAR     29  29 100 CALM      30.39R
MITCHELL       CLEAR     28  26  92 W5        30.41R WCI  23
YANKTON        CLEAR     28  26  92 NW7       30.39R WCI  21
$$

ABBREVIATIONS USED IN REMARKS
   TC - TEMPERATURE IN CELSIUS
  WCI - WIND CHILL INDEX
   HX - HEAT INDEX
  VSB - VISIBILITY




USA.gov is the U.S. government's official web portal to all federal, state and local government web resources and services.